Montreal Mirabel, Quebec

4:41 AM EDT on September 25, 2016 (GMT -0400)
Montreal International (Mirabel)

Weather History for CYMX - October, 2012

Change the Weather History Date:

Tuesday, October 30, 2012

  Actual Average Record
Temperature  
Mean Temperature 61 °F -  
Max Temperature 69 °F 45 °F 69 °F (2012)
Min Temperature 53 °F 30 °F 21 °F (2013)
Degree Days  
Heating Degree Days 4    
Growing Degree Days 11 (Base 50)    
Moisture  
Dew Point 53 °F    
Average Humidity 85    
Maximum Humidity 100    
Minimum Humidity 56    
Precipitation  
Precipitation 0.00 in - - ()
Sea Level Pressure  
Sea Level Pressure 29.52 in    
Wind  
Wind Speed 14 mph ()    
Max Wind Speed 23 mph    
Max Gust Speed 41 mph    
Visibility 14.0 miles    
Events Rain    
Averages and records for this station are not official NWS values.
T = Trace of Precipitation, MM = Missing Value Source: Averaged Metar Reports

Daily Weather History Graph

Daily Weather History Graph

Search for Another Location

Airport or City:

Trip Planner

Search our weather history database for the weather conditions in past years. The results will help you decide how hot, cold, wet, or windy it might be!

Date:

Astronomy

Oct. 30, 2012 Rise Set
Actual Time 7:33 AM EDT 5:45 PM EDT
Civil Twilight 7:02 AM EDT 6:15 PM EDT
Nautical Twilight 6:27 AM EDT 6:50 PM EDT
Astronomical Twilight 5:53 AM EDT 7:25 PM EDT
Moon 6:08 PM EDT (10/30) 8:21 AM EDT (10/30)
Length of Visible Light 11h 13m
Length of Day
10h 11m
Full, 99% of the Moon is Illuminated
Oct 30
Full
Nov 6
Last Quarter
Nov 13
New
Nov 20
First Quarter
Nov 28
Full

Hourly Weather History & Observations

Time (EDT) Temp. Dew Point Humidity Pressure Visibility Wind Dir Wind Speed Gust Speed Precip Events Conditions
12:00 AM 57.2 °F 50.0 °F 77% 29.50 in 25.0 mi NE 23.0 mph 41.4 mph N/A   Mostly Cloudy
1:00 AM 57.2 °F 51.8 °F 82% 29.49 in 25.0 mi NE 17.3 mph 34.5 mph N/A   Overcast
2:00 AM 55.4 °F 51.8 °F 88% 29.48 in 25.0 mi NE 19.6 mph 36.8 mph N/A   Overcast
3:00 AM 55.4 °F 51.8 °F 88% 29.48 in 25.0 mi ENE 21.9 mph 39.1 mph N/A   Mostly Cloudy
4:00 AM 55.4 °F 51.8 °F 88% 29.47 in 25.0 mi NE 17.3 mph 35.7 mph N/A   Overcast
4:14 AM 55.4 °F 51.8 °F 88% 29.47 in 25.0 mi NE 15.0 mph 32.2 mph N/A Rain Light Rain Showers
5:00 AM 55.4 °F 51.8 °F 88% 29.48 in 25.0 mi NE 19.6 mph 33.4 mph N/A Rain Light Rain Showers
6:00 AM 53.6 °F 50.0 °F 88% 29.49 in 25.0 mi NE 17.3 mph 32.2 mph N/A   Mostly Cloudy
7:00 AM 53.6 °F 50.0 °F 88% 29.50 in 45.0 mi NE 12.7 mph 24.2 mph N/A   Mostly Cloudy
8:00 AM 55.4 °F 51.8 °F 88% 29.51 in 45.0 mi ENE 15.0 mph 27.6 mph N/A   Mostly Cloudy
8:16 AM 55.4 °F 51.8 °F 88% 29.53 in 15.0 mi ENE 11.5 mph 24.2 mph N/A Rain Light Rain Showers
9:00 AM 55.4 °F 51.8 °F 88% 29.53 in 45.0 mi ENE 17.3 mph 28.8 mph N/A   Mostly Cloudy
10:00 AM 57.2 °F 53.6 °F 88% 29.55 in 30.0 mi NE 13.8 mph 20.7 mph N/A Rain Light Rain Showers
10:36 AM 57.2 °F 53.6 °F 88% 29.55 in 45.0 mi ENE 16.1 mph 28.8 mph N/A   Mostly Cloudy
11:00 AM 59.0 °F 55.4 °F 88% 29.55 in 30.0 mi ENE 13.8 mph 23.0 mph N/A   Mostly Cloudy
11:13 AM 59.0 °F 55.4 °F 88% 29.56 in 15.0 mi ENE 13.8 mph 21.9 mph N/A Rain Light Rain Showers
1:00 PM 57.2 °F - N/A% - 15.0 mi North 10.4 mph 17.3 mph N/A Rain Light Rain Showers
2:00 PM 62.6 °F - N/A% 29.54 in 25.0 mi NE 5.8 mph - N/A   Mostly Cloudy
3:00 PM 66.2 °F - N/A% - 45.0 mi North 10.4 mph - N/A   Mostly Cloudy
4:00 PM 69.8 °F 53.6 °F 56% 29.53 in 45.0 mi ESE 23.0 mph 29.9 mph N/A   Scattered Clouds
6:00 PM 66.2 °F 50.0 °F 56% 29.55 in 25.0 mi East 11.5 mph - N/A   Mostly Cloudy
7:00 PM 62.6 °F 55.4 °F 77% 29.55 in 25.0 mi ENE 10.4 mph - N/A   Mostly Cloudy
8:00 PM 59.0 °F 55.4 °F 88% 29.56 in 25.0 mi NE 8.1 mph - N/A   Mostly Cloudy
9:00 PM 60.8 °F 55.4 °F 82% 29.56 in 25.0 mi ENE 13.8 mph 20.7 mph N/A   Mostly Cloudy
9:09 PM 59.0 °F 55.4 °F 88% 29.56 in 25.0 mi ENE 11.5 mph 21.9 mph N/A Rain Light Rain Showers
10:00 PM 59.0 °F 57.2 °F 94% 29.57 in 10.0 mi NE 12.7 mph 20.7 mph N/A Rain Light Rain Showers
11:00 PM 57.2 °F 57.2 °F 100% 29.53 in 15.0 mi ENE 10.4 mph - N/A Rain Light Rain Showers